Вернуться в каталог

OPS 4682 DEB

АктивенPO
NORAD 38444·DEBRIS·🇺🇸 United States

Запущен Apr 3, 1965 с Vandenberg Space Force Base

Loading…

Ближайшие Пролёты (ближайшие 24 часа)

TLE

СвежийSource: Space-Track

Эпоха: Sep 14, 2026, 14:56 UTC

1 38444U 65027EZ  26257.62229009  .00000560  00000-0  19337-2 0  9991
2 38444  90.2532  11.9832 0023419 309.2144  50.6897 12.96389214646019

Отслеживайте OPS 4682 DEB в реальном времени с AllMySat

Download on the App Store